This is the latest recevied weather packets stored in our database for station/object NK2J. If no packets are shown the sender has not sent any weather packets the latest 10 day(s).
| Time | Temp. | Humidity | Pressure | Rain* | Wind** | Luminosity | Snow |
|---|---|---|---|---|---|---|---|
| 1777944844 | 24.44° C | 42% | 1012.6 hPa | 0 mm | - | 18 W/m² | - |
| 1777944542 | 24.44° C | 37% | 1012.7 hPa | 0 mm | - | 20 W/m² | - |
| 1777944240 | 24.44° C | 37% | 1012.9 hPa | 0 mm | - | 25 W/m² | - |
| 1777943936 | 24.44° C | 37% | 1012.6 hPa | 0 mm | - | 33 W/m² | - |
| 1777943633 | 24.44° C | 37% | 1012.6 hPa | 0 mm | - | 41 W/m² | - |
| 1777943329 | 24.44° C | 38% | 1012.5 hPa | 0 mm | - | 44 W/m² | - |
| 1777943025 | 24.44° C | 37% | 1012.7 hPa | 0 mm | - | 50 W/m² | - |
| 1777942721 | 24.44° C | 37% | 1012.5 hPa | 0 mm | - | 64 W/m² | - |
| 1777942418 | 25° C | 37% | 1012.6 hPa | 0 mm | - | 68 W/m² | - |
| 1777942116 | 24.44° C | 36% | 1012.7 hPa | 0 mm | - | 73 W/m² | - |
| 1777941812 | 24.44° C | 37% | 1012.5 hPa | 0 mm | - | 72 W/m² | - |
| 1777941509 | 24.44° C | 37% | 1012.5 hPa | 0 mm | - | 72 W/m² | - |
| 1777941206 | 24.44° C | 37% | 1012.6 hPa | 0 mm | - | 80 W/m² | - |
| 1777940902 | 24.44° C | 37% | 1012.7 hPa | 0 mm | - | 85 W/m² | - |
| 1777940599 | 24.44° C | 37% | 1012.5 hPa | 0 mm | - | 101 W/m² | - |
| 1777940298 | 24.44° C | 37% | 1012.6 hPa | 0 mm | - | 101 W/m² | - |
| 1777939994 | 24.44° C | 37% | 1012.7 hPa | 0 mm | - | 97 W/m² | - |
| 1777939692 | 25° C | 37% | 1012.7 hPa | 0 mm | - | 113 W/m² | - |
| 1777939390 | 25° C | 37% | 1013 hPa | 0 mm | - | 131 W/m² | - |
| 1777939086 | 25° C | 36% | 1013.1 hPa | 0 mm | - | 121 W/m² | - |
| 1777938782 | 25° C | 37% | 1013.1 hPa | 0 mm | - | 125 W/m² | - |
| 1777938479 | 25° C | 37% | 1013 hPa | 0 mm | - | 147 W/m² | - |
| 1777938177 | 25° C | 36% | 1013 hPa | 0 mm | - | 161 W/m² | - |
| 1777937873 | 25° C | 36% | 1013 hPa | 0 mm | - | 159 W/m² | - |
| 1777937569 | 25.56° C | 35% | 1012.9 hPa | 0 mm | - | 157 W/m² | - |
* Rain latest hour (hover to see other rain measurements)
** Current wind speed in m/s (hover to see current wind gust speed)